Home > Weather > Cleveland > Past weeks

Flag for USA Past Weather in Cleveland, Tennessee, USA — Yesterday and Last 2 Weeks

Now
85 °F

Broken clouds.


Feels Like: 90 °F
Forecast: 72 / 91 °F
Wind: No wind

Location: Lovell Field

Current Time: Aug 27, 2016 at 1:08:23 PM

Latest Report: Aug 27, 2016 at 11:53 AM


Visibility: 10 mi

Pressure: 30.11 "Hg

Humidity: 63%

Dew Point: 71 °F

Location of ClevelandLocation

Past Weather in Cleveland — Graph

°F

Cleveland Temperature Yesterday

Maximum temperature yesterday: 94 °F (at 1:53 PM)
Minimum temperature yesterday: 74 °F (at 6:53 AM)
Average temperature yesterday: 82 °F

High & Low Weather Summary for the Past Weeks

 TemperatureHumidityPressure
High97 °F (Aug 17, 2:53 PM)97% (Aug 27, 4:53 AM)30.27 "Hg (Aug 27, 4:53 AM)
Low65 °F (Aug 23, 6:53 AM)27% (Aug 22, 4:53 PM)29.83 "Hg (Aug 20, 4:53 PM)
Average81 °F69%30.07 "Hg
* Reported Aug 12 11:53 AM — Aug 27 11:53 AM, Cleveland, Weather by CustomWeather, © 2016

Note: Actual official high and low records may vary slightly from our data, if they occured in-between our weather recording intervals... More about our weather records

Advertising

Cleveland Weather History for the Previous 24 Hours

Scroll right to see more
 ConditionsComfort  
Time TempWeatherWind HumidityBarometerVisibility
11:53 AM
Sat, Aug 27
85 °FBroken clouds.No wind63%30.11 "Hg10 mi
10:53 AM83 °FScattered clouds.No wind70%30.12 "Hg10 mi
9:53 AM79 °FFog.No wind84%30.11 "Hg6 mi
8:53 AM74 °FFog.No wind97%30.11 "Hg2 mi
7:53 AM74 °FFog.No wind94%30.08 "Hg1 mi
6:53 AM73 °FFog.No wind94%30.06 "Hg4 mi
5:53 AM74 °FFog.No wind94%30.05 "Hg4 mi
4:53 AM74 °FClear.No wind97%30.04 "Hg7 mi
3:53 AM75 °FClear.No wind94%30.05 "Hg10 mi
2:53 AM76 °FClear.No wind94%30.05 "Hg8 mi
1:53 AM77 °FPassing clouds.3 mph90%30.07 "Hg10 mi
12:53 AM76 °FLight rain. Partly cloudy.3 mph94%30.08 "Hg9 mi
11:53 PM
Fri, Aug 26
77 °FPassing clouds.No wind88%30.08 "Hg10 mi
10:53 PM76 °FPassing clouds.3 mph91%30.08 "Hg10 mi
9:53 PM78 °FPassing clouds.No wind79%30.06 "Hg10 mi
8:53 PM79 °FBroken clouds.7 mph79%30.06 "Hg10 mi
7:53 PM79 °FBroken clouds.3 mph84%30.04 "Hg10 mi
6:53 PM80 °FBroken clouds.5 mph76%30.01 "Hg10 mi
6:04 PM78 °FStrong thunderstorms. Fog.9 mph79%30.05 "Hg2 mi
5:53 PM80 °FThunderstorms. Broken clouds.8 mph79%30.02 "Hg10 mi
4:53 PM89 °FThunderstorms. Broken clouds.12 mph55%30.00 "Hg9 mi
3:53 PM94 °FBroken clouds.10 mph44%29.99 "Hg10 mi
2:53 PM94 °FBroken clouds.7 mph46%30.03 "Hg10 mi
1:53 PM94 °FScattered clouds.8 mph48%30.06 "Hg10 mi
Weather by CustomWeather, © 2016

See weather overviewHow to use our weather pages